Powrót do katalogu

THORAD AGENA D DEB

AktywnySSO
NORAD 42502·DEBRIS·🇺🇸 United States

Wystrzelony Apr 8, 1970 z Vandenberg Space Force Base

Loading…

Następne Przeloty (najbliższe 24 godziny)

TLE

ŚwieżeSource: Space-Track

Epoka: Sep 14, 2026, 06:01 UTC

1 42502U 70025RG  26257.25109844  .00000007  00000-0  74430-4 0  9991
2 42502  99.7157 169.2201 0013993 351.3702 160.4004 13.54875461633450

Śledź THORAD AGENA D DEB w czasie rzeczywistym z AllMySat

Download on the App Store